KENT RIDGE 1

Last updated on Thu Jul 03 2025 00:02:30 GMT+0000 (Coordinated Universal Time)

1 41167U 15077B 25183.13065957 .00003156 00000+0 10863-3 0 9999 2 41167 14.9813 343.4672 0009032 350.7094 9.3060 15.20093878527698
UTC large
Height (km)
Speed (km/s)
/
Latitude / Longitude
Inclination (degrees)
Orbital Period (minutes)
Azimuth
Elevation
Range (km)
Doppler Factor

Next 0 passes for location: London (51.5072 / 0.1276)

Sorry there are no passes over London.